Flag for China Weather past 2 weeks in Kunming, Yunnan, China

Now
34 °F

Partly cloudy.


Feels Like: 29 °F
Forecast: 29 / 56 °F
Wind: 6 mph from West

Location: Kunming Airport

Current Time: Dec 22, 2014 at 4:31:17 AM

Latest Report: Dec 22, 2014 at 4:00 AM


Visibility: 4 mi

Pressure: 30.30 "Hg

Humidity: 93%

Dew point: 32 °F

Location of KunmingLocation

Historic Weather in Kunming — Graph

°F

Kunming temperature yesterday

Maximum temperature yesterday: 41 °F (at 12:00 AM)
Minimum temperature yesterday: 30 °F (at 11:00 PM)
Average temperature yesterday: 36 °F

Past Weeks' High & Low Weather Summary

 TemperatureHumidityPressure
High68 °F (Dec 15, 4:00 PM)100% (Dec 7, 6:00 AM)30.54 "Hg (Dec 7, 6:00 AM)
Low28 °F (Dec 22, 1:00 AM)24% (Dec 14, 3:00 PM)30.07 "Hg (Dec 20, 4:00 PM)
Average43 °F82%30.26 "Hg
* Reported Dec 7 3:00 AM — Dec 22 3:00 AM, Kunming, Weather by CustomWeather, © 2014

Note: Actual official high and low records may vary slightly from our data, if they occured in-between our weather recording intervals... More about our weather records

Advertising

Kunming weather history for previous 24 hours

 ConditionsComfort  
Time TempWeatherWind HumidityBarometerVisibility
3:00 AM
Dec 22
32 °FPartly cloudy.8 mph100%30.30 "Hg4 mi
2:00 AM32 °FPartly cloudy.3 mph100%30.33 "Hg4 mi
1:00 AM28 °FIce fog.1 mph100%30.36 "Hg3 mi
12:00 AM30 °FIce fog.3 mph93%30.36 "Hg3 mi
11:00 PM
Dec 21
30 °FClear.3 mph93%30.36 "Hg4 mi
10:00 PM32 °FClear.No wind87%30.36 "Hg4 mi
9:00 PM34 °FClear.No wind81%30.36 "Hg10 mi
8:00 PM34 °FClear.1 mph81%30.36 "Hg10 mi
7:00 PM37 °FPassing clouds.3 mph65%30.33 "HgN/A
6:00 PM39 °FPassing clouds.6 mph61%30.33 "HgN/A
5:00 PM41 °FPartly sunny.8 mph57%30.33 "HgN/A
4:00 PM41 °FPartly sunny.10 mph57%30.33 "HgN/A
3:00 PM41 °FPartly sunny.8 mph57%30.36 "HgN/A
2:00 PM41 °FPartly sunny.13 mph57%30.39 "HgN/A
1:00 PM39 °FPartly sunny.20 mph56%30.42 "HgN/A
12:00 PM39 °FBroken clouds.20 mph61%30.42 "HgN/A
11:00 AM36 °FMore clouds than sun.17 mph70%30.45 "HgN/A
10:00 AM34 °FMore clouds than sun.17 mph81%30.42 "HgN/A
9:00 AM34 °FMore clouds than sun.15 mph81%30.39 "HgN/A
8:00 AM34 °FMore clouds than sun.17 mph81%30.36 "Hg5 mi
7:00 AM36 °FMostly cloudy.17 mph81%30.30 "Hg5 mi
6:00 AM36 °FMostly cloudy.22 mph87%30.27 "Hg5 mi
5:00 AM36 °FPartly cloudy.17 mph93%30.24 "Hg5 mi
4:00 AM32 °FClear.8 mph100%30.24 "Hg5 mi
Weather by CustomWeather, © 2014

See weather overviewHow to use our weather pages